This is the latest recevied weather packets stored in our database for station/object SALT. If no packets are shown the sender has not sent any weather packets the latest 10 day(s).
| Time | Temp. | Humidity | Pressure | Rain* | Wind** | Luminosity | Snow |
|---|---|---|---|---|---|---|---|
| 1777457860 | 1.67° C | 69% | 1028.2 hPa | 0 mm | - | - | - |
| 1777457255 | 1.67° C | 69% | 1028.2 hPa | 0 mm | - | - | - |
| 1777456652 | 2.22° C | 68% | 1028 hPa | 0 mm | - | - | - |
| 1777456049 | 2.22° C | 68% | 1028.1 hPa | 0 mm | - | - | - |
| 1777455447 | 2.22° C | 66% | 1028.1 hPa | 0 mm | - | - | - |
| 1777454844 | 2.78° C | 66% | 1028 hPa | 0 mm | - | - | - |
| 1777454242 | 2.78° C | 64% | 1028.1 hPa | 0 mm | - | - | - |
| 1777453637 | 2.78° C | 63% | 1028.3 hPa | 0 mm | - | - | - |
| 1777453034 | 2.78° C | 63% | 1028.4 hPa | 0 mm | - | - | - |
| 1777452431 | 2.78° C | 63% | 1028.4 hPa | 0 mm | - | - | - |
| 1777451829 | 3.33° C | 62% | 1028.4 hPa | 0 mm | - | - | - |
| 1777451226 | 3.33° C | 59% | 1028.4 hPa | 0 mm | - | - | - |
| 1777450624 | 2.78° C | 61% | 1028.3 hPa | 0 mm | - | - | - |
| 1777450019 | 2.78° C | 59% | 1028.3 hPa | 0 mm | - | - | - |
| 1777449416 | 2.78° C | 59% | 1028.3 hPa | 0 mm | - | - | - |
| 1777448813 | 2.78° C | 58% | 1028.2 hPa | 0 mm | - | - | - |
| 1777448211 | 2.78° C | 58% | 1028.1 hPa | 0 mm | - | - | - |
| 1777447608 | 2.78° C | 59% | 1028.1 hPa | 0 mm | - | - | - |
| 1777447006 | 2.22° C | 60% | 1028 hPa | 0 mm | - | - | - |
| 1777446401 | 2.78° C | 61% | 1028.1 hPa | 0 mm | - | - | - |
| 1777445798 | 3.33° C | 61% | 1028.1 hPa | 0 mm | - | - | - |
| 1777445196 | 2.78° C | 59% | 1028.2 hPa | 0 mm | - | - | - |
| 1777444593 | 2.78° C | 61% | 1028.2 hPa | 0 mm | - | - | - |
| 1777443990 | 2.78° C | 60% | 1028.3 hPa | 0 mm | - | - | - |
| 1777443388 | 2.78° C | 61% | 1028.3 hPa | 0 mm | - | - | - |
* Rain latest 24 hours (hover to see other rain measurements)
** Current wind speed in m/s (hover to see current wind gust speed)